This is the latest recevied weather packets stored in our database for station/object KD2SIG. If no packets are shown the sender has not sent any weather packets the latest 10 day(s).
| Time | Temp. | Humidity | Pressure | Rain* | Wind** | Luminosity | Snow |
|---|---|---|---|---|---|---|---|
| 1777849614 | 10° C | 45% | 1009.8 hPa | 0 mm | - | 23 W/m² | - |
| 1777849311 | 10° C | 44% | 1009.8 hPa | 0 mm | - | 24 W/m² | - |
| 1777849009 | 10.56° C | 45% | 1009.7 hPa | 0 mm | - | 29 W/m² | - |
| 1777848708 | 10.56° C | 42% | 1009.7 hPa | 0 mm | - | 29 W/m² | - |
| 1777848406 | 10.56° C | 40% | 1009.8 hPa | 0 mm | - | 31 W/m² | - |
| 1777848104 | 10.56° C | 39% | 1009.6 hPa | 0 mm | - | 34 W/m² | - |
| 1777847802 | 10.56° C | 39% | 1009.8 hPa | 0 mm | - | 51 W/m² | - |
| 1777847498 | 10.56° C | 37% | 1009.8 hPa | 0 mm | - | 64 W/m² | - |
| 1777847195 | 10.56° C | 38% | 1009.9 hPa | 0 mm | - | 89 W/m² | - |
| 1777846893 | 11.11° C | 40% | 1009.8 hPa | 0 mm | - | 115 W/m² | - |
| 1777846591 | 11.11° C | 40% | 1009.9 hPa | 0 mm | - | 109 W/m² | - |
| 1777846288 | 11.11° C | 39% | 1009.9 hPa | 0 mm | - | 125 W/m² | - |
| 1777845984 | 10.56° C | 39% | 1009.9 hPa | 0 mm | - | 144 W/m² | - |
| 1777845681 | 11.11° C | 40% | 1010 hPa | 0 mm | - | 121 W/m² | - |
| 1777845378 | 11.11° C | 38% | 1010 hPa | 0 mm | - | 121 W/m² | - |
| 1777845075 | 11.11° C | 40% | 1009.8 hPa | 0 mm | - | 121 W/m² | - |
| 1777844773 | 11.11° C | 40% | 1009.9 hPa | 0 mm | - | 143 W/m² | - |
| 1777844469 | 11.11° C | 38% | 1010 hPa | 0 mm | - | 151 W/m² | - |
| 1777844169 | 11.11° C | 38% | 1009.7 hPa | 0 mm | - | 208 W/m² | - |
| 1777843864 | 12.22° C | 38% | 1010 hPa | 0 mm | - | 123 W/m² | - |
| 1777843562 | 12.22° C | 39% | 1009.8 hPa | 0 mm | - | 336 W/m² | - |
| 1777843259 | 11.67° C | 41% | 1010.1 hPa | 0 mm | - | 328 W/m² | - |
| 1777842956 | 12.78° C | 40% | 1009.9 hPa | 0 mm | - | 341 W/m² | - |
| 1777842651 | 11.67° C | 44% | 1010.1 hPa | 0 mm | - | 363 W/m² | - |
| 1777842349 | 11.67° C | 43% | 1010.1 hPa | 0 mm | - | 368 W/m² | - |
* Rain latest hour (hover to see other rain measurements)
** Current wind speed in m/s (hover to see current wind gust speed)